Overview Statistics Trail Chart Weather Telemetry Raw packets
 

This is the latest recevied weather packets stored in our database for station/object W6MAF. If no packets are shown the sender has not sent any weather packets the latest 10 day(s).

<< 49 50 51 52 53 54 55 >>
Time Temp. Humidity Pressure Rain* Wind** Luminosity Snow
1788320134 17.78° C 29% - 0 mm 7.15 m/s, 183° - -
1788319837 17.78° C 28% - 0 mm 6.71 m/s, 169° - -
1788319539 17.78° C 28% - 0 mm 5.81 m/s, 173° - -
1788319241 17.78° C 28% - 0 mm 5.81 m/s, 166° - -
1788318940 17.78° C 28% - 0 mm 5.36 m/s, 160° - -
1788318642 18.33° C 27% - 0 mm 7.15 m/s, 170° - -
1788318345 18.33° C 26% - 0 mm 6.71 m/s, 167° - -
1788318047 18.33° C 25% - 0 mm 5.36 m/s, 156° - -
1788317750 18.33° C 24% - 0 mm 5.81 m/s, 149° - -
1788317452 18.89° C 25% - 0 mm 7.15 m/s, 156° - -
1788317151 18.89° C 25% - 0 mm 8.05 m/s, 165° - -
1788316853 18.89° C 24% - 0 mm 6.26 m/s, 155° - -
1788316555 18.89° C 24% - 0 mm 6.26 m/s, 169° - -
1788316258 19.44° C 23% - 0 mm 6.71 m/s, 165° - -
1788315960 19.44° C 22% - 0 mm 6.26 m/s, 177° - -
1788315662 20° C 20% - 0 mm 4.92 m/s, 159° - -
1788315362 20° C 19% - 0 mm 3.58 m/s, 149° - -
1788315063 20° C 18% - 0 mm 4.92 m/s, 165° - -
1788314766 20.56° C 17% - 0 mm 4.92 m/s, 179° - -
1788314468 20.56° C 17% - 0 mm 3.58 m/s, 167° - -
1788314170 21.11° C 16% - 0 mm 5.36 m/s, 166° - -
1788313873 21.11° C 15% - 0 mm 5.36 m/s, 129° - -
1788313571 21.67° C 14% - 0 mm 3.13 m/s, 160° - -
1788313274 21.67° C 13% - 0 mm 3.13 m/s, 114° - -
1788312976 22.22° C 13% - 0 mm 3.58 m/s, 138° - -

* Rain latest hour (hover to see other rain measurements)
** Current wind speed in m/s (hover to see current wind gust speed)